Wind_Speed
15 15 15 14 14 14 13 13 12 13 13 13 13 13 13 12 12 12 12 12 11 12 12 13 13 12 10 8 8 9 13 14 14 9 8 11 11 11 11 15 16 17 17 12 10 8 7 8 10 10 6 4 3 3 6 7 3 1 2 1 2 1 0 1 3 3 4 9 10 7 2 3 6 2 2 1 2 9 12 9 11 12 12 15 22 30 32 31
16 16 16 15 15 14 14 13 13 13 13 14 14 14 14 13 13 12 13 12 12 13 13 13 12 12 9 7 7 9 13 14 13 12 14 12 8 14 16 14 14 18 18 14 15 13 8 6 9 8 5 3 3 4 4 5 5 2 2 1 3 2 2 1 3 3 3 9 10 9 5 3 5 4 3 2 4 10 13 12 14 15 15 18 25 29 29 30
16 16 16 16 15 15 15 14 14 13 14 14 15 15 14 14 14 13 13 13 13 14 13 13 12 10 8 5 6 8 11 11 7 9 8 8 13 18 19 14 13 18 20 17 18 18 13 11 11 8 4 3 4 5 5 4 4 1 2 2 4 2 3 1 4 3 4 11 11 9 6 1 3 5 3 5 9 12 13 13 16 17 18 19 20 24 27 28
15 16 16 16 16 15 15 15 14 14 14 15 15 15 15 15 14 14 13 13 13 13 13 13 12 9 5 4 5 7 8 5 2 5 1 3 13 20 22 17 15 17 18 17 17 18 14 9 7 6 5 4 5 5 5 4 4 1 3 2 3 2 3 2 4 5 7 10 9 9 9 5 5 3 4 9 11 10 9 12 18 21 21 20 18 22 24 24
14 15 15 16 16 16 16 15 15 15 15 15 16 15 16 15 15 14 14 14 14 13 13 12 11 7 3 3 3 6 5 2 1 4 0 2 9 20 23 19 16 15 15 16 15 14 10 7 4 4 5 4 4 3 5 6 4 2 2 3 2 3 3 3 5 6 8 9 9 8 9 7 3 2 3 8 11 6 4 12 20 21 21 20 19 20 21 21
14 15 15 16 16 17 17 17 16 16 16 16 16 16 16 15 15 14 14 15 14 13 12 11 10 5 2 2 2 3 2 1 4 3 0 1 8 18 22 19 17 15 14 15 13 8 6 4 2 4 4 4 5 4 5 7 6 2 2 3 1 4 3 5 6 7 7 10 10 7 6 4 5 5 1 4 6 3 4 15 21 20 23 24 21 19 17 17
15 16 16 16 17 17 17 17 17 17 17 16 16 16 16 16 15 15 15 15 14 13 11 11 8 3 2 3 2 3 2 4 8 5 3 3 10 15 18 18 16 15 15 14 11 6 4 5 4 5 5 5 4 5 5 6 6 3 2 3 1 3 5 7 7 6 7 9 8 6 6 4 7 7 3 3 2 4 8 18 21 23 26 25 20 17 16 17
18 17 17 17 18 18 17 17 18 18 17 16 16 16 16 16 15 15 15 14 14 13 11 10 6 1 2 3 3 3 1 7 7 6 5 7 13 14 17 18 16 17 17 16 13 8 4 5 7 6 4 5 4 3 3 5 2 2 3 3 3 5 3 6 7 7 6 7 6 7 7 4 6 6 4 1 3 5 16 20 20 22 23 20 18 17 16 17
19 19 18 18 19 19 18 18 18 17 17 16 15 15 15 15 16 16 15 15 14 12 11 8 3 3 3 1 2 2 4 7 5 6 7 9 15 18 19 19 20 19 16 16 16 10 5 5 7 6 4 5 5 3 5 4 1 2 4 5 7 8 6 2 3 7 7 5 7 10 7 4 7 6 4 6 5 11 19 19 19 20 19 18 17 18 16 15
20 20 19 19 19 19 19 18 18 18 18 17 14 14 15 16 16 16 15 15 13 11 10 5 1 4 3 1 3 1 4 5 4 6 8 10 16 21 21 20 22 21 15 14 15 12 9 7 4 3 4 3 4 4 5 6 3 6 8 11 11 10 7 5 3 2 4 4 7 10 8 4 3 3 2 6 3 13 18 17 18 17 17 17 16 16 17 16
21 20 20 20 20 20 19 18 18 18 18 17 15 14 15 16 16 16 16 14 11 9 7 2 4 6 3 0 2 3 5 5 6 7 9 11 17 22 23 21 22 24 17 11 14 17 14 11 6 3 3 3 4 4 2 3 10 13 13 14 11 9 6 2 1 1 1 2 5 9 10 5 1 3 6 6 6 11 16 17 16 15 14 14 16 14 13 14
22 22 21 21 21 21 21 19 18 18 19 17 15 15 14 15 15 15 15 11 7 6 3 1 7 9 3 1 4 8 6 4 4 7 7 8 14 19 22 22 22 25 20 11 14 21 18 15 10 3 3 4 5 3 3 6 10 11 11 10 8 7 5 1 2 1 3 2 2 6 9 4 2 6 6 5 9 10 13 17 15 14 12 11 14 11 9 13
23 23 22 22 23 22 22 21 19 18 18 16 14 14 13 13 14 13 11 7 4 4 1 4 9 8 3 1 9 10 7 4 2 6 6 5 7 13 18 18 19 24 22 14 14 18 18 16 10 6 6 4 2 2 0 6 8 8 7 7 6 5 3 1 2 1 3 1 2 3 5 3 1 4 2 3 11 12 12 16 14 12 11 10 12 10 8 13
24 23 23 23 23 23 23 22 21 19 18 16 14 13 12 11 11 9 8 5 2 3 4 8 10 7 2 5 11 8 5 6 6 10 10 8 8 12 17 15 16 22 21 16 15 14 16 17 12 7 5 3 2 3 1 6 6 6 5 3 4 2 1 2 2 4 6 3 3 3 4 5 3 2 2 3 10 14 14 15 14 12 11 10 10 10 8 11
24 24 23 24 24 25 24 22 20 19 18 15 13 12 10 9 8 6 4 2 3 4 6 9 9 5 1 7 11 8 5 6 12 18 15 12 11 11 15 16 17 21 20 17 17 16 17 17 10 6 3 2 1 3 2 5 3 3 5 2 2 3 1 1 3 5 5 4 4 1 3 4 2 3 2 4 3 10 14 15 15 13 12 11 10 10 8 10
25 24 23 24 25 25 25 22 19 19 19 15 12 11 7 5 4 3 2 2 4 5 7 6 6 4 1 5 8 7 3 6 15 21 16 13 14 11 13 16 16 18 19 18 18 17 17 12 5 3 1 0 1 2 3 4 2 2 2 4 4 4 3 1 3 5 4 4 4 2 2 2 2 4 3 3 2 7 14 15 16 15 14 13 10 9 9 9
25 24 23 24 24 25 24 22 19 19 19 15 12 8 3 3 2 2 1 3 4 5 5 1 2 2 3 6 7 5 5 9 16 22 18 14 15 14 13 11 9 13 16 16 16 13 9 6 2 2 1 1 2 3 4 2 5 4 2 5 6 7 6 4 4 5 5 6 4 3 3 3 4 6 4 2 0 7 12 14 16 15 13 13 10 10 10 8
25 24 23 24 24 23 21 20 19 19 18 14 10 6 3 3 1 2 4 6 5 2 2 3 0 1 3 6 5 3 4 7 13 18 18 17 17 17 15 9 6 8 8 7 9 6 2 1 1 0 2 1 2 3 3 3 3 5 5 4 4 6 7 7 6 7 9 8 7 6 5 5 7 6 4 3 2 5 6 7 13 15 14 13 10 9 10 8
24 23 23 24 24 22 20 18 18 19 17 12 8 6 4 3 2 2 5 6 3 1 2 2 4 1 1 4 5 5 5 8 10 11 16 19 18 18 16 11 7 6 4 2 4 2 1 2 2 1 2 4 5 5 6 3 2 3 6 7 8 7 5 6 4 7 12 8 7 7 6 7 9 7 4 3 4 6 3 3 7 14 14 12 9 9 10 9
23 23 23 24 24 21 19 18 17 17 16 11 7 4 2 1 1 0 2 4 4 5 5 5 8 4 5 5 6 5 4 9 8 7 15 19 17 13 10 7 5 4 4 4 3 2 2 3 2 5 5 8 8 5 6 6 7 5 4 7 10 8 5 3 3 6 10 6 4 5 5 7 10 10 5 3 5 5 4 5 5 10 12 11 10 10 11 8
23 23 23 24 24 21 19 18 17 16 14 11 7 2 0 1 1 2 2 4 8 10 9 8 10 9 10 10 11 9 5 6 6 7 14 15 14 12 6 4 5 3 4 5 3 1 3 4 6 8 8 10 8 4 5 7 8 7 3 6 7 6 3 3 5 6 4 2 2 3 6 5 7 9 3 2 6 4 4 6 5 5 7 8 11 13 10 7
24 22 23 24 23 21 19 19 17 16 14 11 5 1 3 4 2 6 4 4 6 10 12 11 10 11 14 18 21 15 6 5 5 6 10 8 9 8 4 3 5 4 4 3 2 0 2 4 8 9 8 9 8 6 7 8 7 6 3 5 5 6 6 5 6 7 2 1 2 3 6 4 3 5 2 3 1 3 3 5 4 4 4 4 9 11 10 9
24 22 23 22 22 21 19 19 17 14 12 8 4 4 4 5 8 11 5 2 6 6 8 8 7 8 10 14 18 14 8 6 5 6 8 8 6 6 5 5 5 4 4 4 4 3 4 6 10 10 7 8 9 8 8 8 7 4 4 5 5 10 9 1 3 6 2 2 5 5 5 3 2 3 3 4 4 2 3 4 4 4 4 2 3 4 7 11
24 23 22 21 22 19 19 20 13 10 12 9 9 9 7 8 10 11 4 1 5 5 5 8 7 5 8 12 13 9 7 5 5 6 8 9 6 5 6 6 5 5 5 6 7 5 6 9 9 10 7 8 9 9 8 6 5 5 5 6 6 11 9 6 8 6 3 3 5 7 4 1 4 5 4 1 2 1 3 3 3 4 2 1 1 1 2 9
24 23 21 21 20 17 19 17 6 9 14 10 12 14 13 13 11 8 3 2 3 5 3 5 5 4 10 12 7 5 6 4 5 7 10 10 7 4 4 4 4 5 7 7 7 5 9 10 7 8 8 8 8 9 9 6 5 5 5 10 13 13 10 13 15 9 4 1 5 6 3 1 3 5 5 1 2 2 2 1 1 1 1 2 1 1 2 3
25 22 20 21 19 18 16 7 4 13 13 8 12 18 15 10 8 3 2 3 3 4 1 1 2 3 6 5 0 5 5 3 6 11 13 13 10 5 3 2 3 6 8 6 4 3 7 10 6 8 9 9 8 9 9 7 4 5 5 11 15 17 15 17 17 9 3 2 5 5 2 1 2 3 5 2 2 2 0 1 3 2 1 3 1 0 2 1
25 22 20 20 18 17 10 5 12 15 6 5 14 19 13 7 4 4 4 3 3 2 1 1 1 0 2 3 3 5 2 4 5 9 11 14 11 4 3 4 3 5 5 4 3 3 6 8 7 9 10 9 7 7 9 7 6 5 5 12 18 19 19 19 15 7 3 3 3 5 2 3 1 2 6 6 3 2 2 4 5 3 4 5 2 1 1 1
25 22 20 18 17 16 9 9 14 9 5 13 17 16 15 13 8 4 4 2 2 1 1 1 1 1 2 1 1 2 4 3 3 6 12 18 12 4 3 6 3 3 3 3 4 6 6 9 9 8 8 7 6 8 9 7 6 6 4 16 19 18 19 17 11 5 4 4 3 6 3 3 0 2 7 7 5 6 7 7 7 6 6 7 4 2 2 1
25 22 19 17 16 14 10 10 11 7 11 17 16 15 17 15 8 4 3 2 1 1 1 0 1 2 2 2 2 3 2 2 3 6 9 13 8 3 4 6 3 4 5 5 6 6 5 9 9 8 6 6 8 10 8 7 6 4 8 13 13 13 11 9 7 5 5 4 3 8 5 3 0 1 6 7 6 8 9 7 8 8 8 8 5 4 3 0
25 22 19 16 14 10 10 13 12 8 13 16 17 18 14 9 5 4 2 2 1 2 1 1 1 2 2 1 2 2 1 1 2 4 4 4 3 1 2 3 2 3 4 3 6 6 6 7 6 6 6 7 9 9 8 9 8 5 7 8 9 10 5 3 3 4 5 0 5 10 8 4 2 3 6 6 5 8 8 6 8 9 9 8 6 4 2 1
24 21 18 16 13 9 7 10 10 8 12 16 18 15 8 5 4 4 1 1 0 2 0 1 2 3 4 3 2 1 1 2 1 5 4 3 2 1 1 0 1 1 4 4 4 4 5 6 4 4 6 6 7 7 8 7 4 4 5 5 7 5 2 3 3 4 3 4 5 11 9 3 2 3 6 6 3 6 9 8 10 11 11 9 6 4 3 1
22 19 18 16 14 11 9 9 9 10 12 15 15 8 4 4 2 1 1 0 1 2 2 3 3 3 4 5 3 2 2 1 2 4 5 4 3 2 3 2 2 0 2 3 3 3 4 5 5 4 4 5 4 3 5 3 2 5 5 5 5 2 1 3 1 1 3 5 5 13 9 2 0 2 2 6 4 3 5 6 9 11 11 11 8 5 3 2
21 18 16 14 14 15 14 13 11 9 11 13 10 3 5 4 0 3 3 1 1 3 2 3 4 4 6 4 3 3 3 2 3 4 5 4 3 4 5 5 6 4 1 3 2 2 3 5 5 3 2 3 5 3 3 3 1 3 5 5 5 4 3 3 4 3 2 2 1 8 8 2 2 2 5 1 2 4 4 3 3 5 6 8 6 4 3 3
20 16 14 14 15 16 14 11 9 9 11 10 6 4 5 3 2 3 2 2 3 4 3 5 5 4 6 4 3 3 4 4 5 5 5 2 3 3 4 6 6 5 2 2 3 2 4 4 5 3 3 2 4 5 6 4 1 2 4 5 5 4 4 4 4 3 2 2 3 4 4 1 2 2 7 5 7 9 8 7 5 4 4 3 3 4 4 4
17 14 14 15 15 14 10 6 6 7 6 4 5 4 3 0 3 2 2 3 2 3 2 4 5 4 3 2 2 2 4 3 3 4 4 3 2 2 3 4 3 4 3 1 3 2 5 5 6 4 4 4 4 4 5 5 1 2 2 5 4 3 3 3 3 4 6 4 3 4 2 1 2 4 6 4 7 9 8 7 4 2 4 4 3 3 4 5
16 14 13 13 13 10 4 2 6 5 1 4 5 2 1 3 3 2 3 4 2 3 3 3 3 2 1 1 2 2 2 2 3 3 2 3 2 2 1 2 1 3 4 3 2 1 3 5 5 2 2 3 6 5 4 5 2 1 1 3 4 4 3 3 2 5 7 5 2 2 3 2 3 3 6 4 7 8 7 7 5 3 4 6 5 4 5 6
17 13 9 12 12 6 3 6 9 7 4 6 4 1 3 4 3 3 3 4 3 2 5 4 2 2 1 1 3 4 1 0 1 2 1 2 2 6 4 1 4 4 2 3 3 2 3 3 6 1 2 2 3 6 5 4 4 4 1 3 3 1 2 3 3 4 4 4 2 1 3 4 3 1 1 2 8 8 7 8 8 6 5 7 7 6 6 7
15 11 8 12 11 7 7 9 10 7 4 4 1 3 3 4 3 3 3 3 3 3 5 3 0 2 3 3 3 5 5 4 4 1 1 2 2 4 4 2 4 6 4 1 2 1 3 1 6 3 4 1 3 6 3 3 3 5 3 1 2 2 0 1 2 3 3 3 2 1 2 1 1 1 3 4 7 9 8 8 7 7 7 7 8 9 8 8
9 5 4 8 7 10 12 12 10 5 5 2 2 3 2 4 4 4 4 5 3 3 4 2 1 2 2 4 1 4 8 8 7 4 3 4 1 2 5 4 4 8 8 3 3 1 1 4 3 5 2 2 4 4 3 3 4 3 2 3 2 3 3 1 1 4 4 4 5 1 2 1 1 1 3 5 7 10 8 7 8 8 8 7 7 9 9 8
3 1 3 7 4 13 15 12 6 5 2 1 2 3 4 4 3 5 6 6 3 3 3 0 1 2 1 5 4 3 7 9 6 4 3 4 1 2 7 6 4 7 8 4 4 2 2 4 1 5 2 3 2 0 5 4 1 2 3 2 1 1 0 1 1 2 5 4 4 4 1 2 2 0 2 2 5 9 8 6 7 8 8 8 6 7 8 7
2 2 3 4 7 18 14 6 2 3 2 2 2 3 5 5 3 5 5 6 4 2 4 2 3 3 1 4 3 2 4 6 4 3 2 3 3 2 6 6 4 6 5 4 5 3 2 2 1 3 3 3 3 5 5 7 5 4 3 2 3 2 0 1 2 2 3 4 4 5 4 1 1 3 3 1 3 9 9 7 7 7 7 8 7 8 8 7
2 1 4 3 8 17 10 3 1 1 2 3 3 4 4 5 4 4 4 5 4 2 4 4 4 4 2 3 2 1 4 3 3 3 1 1 4 2 5 6 6 4 2 2 3 3 0 2 2 2 2 2 4 3 3 5 4 5 3 1 2 4 3 3 3 2 3 5 4 4 4 3 3 2 1 1 4 10 8 7 9 7 7 8 8 8 9 7
2 3 9 9 4 10 4 2 3 1 1 4 4 3 2 3 3 4 5 5 4 2 3 4 3 3 3 2 1 3 4 2 1 1 0 1 3 3 5 7 7 5 3 2 3 3 1 2 3 3 4 4 4 4 5 5 5 4 1 2 0 2 4 4 4 3 4 4 4 4 3 2 2 0 1 0 6 11 8 7 9 9 7 8 7 8 9 9
1 3 7 9 5 6 4 1 2 2 3 3 4 5 4 3 2 4 4 4 3 2 2 3 3 3 4 3 3 3 4 2 2 3 1 1 1 4 5 6 7 5 2 1 2 3 3 2 3 2 3 4 5 6 6 6 4 2 1 3 3 2 8 7 3 3 3 1 3 5 4 2 2 4 2 1 6 10 8 7 8 9 8 7 7 7 8 9
3 1 4 7 4 5 5 3 4 3 2 1 3 4 2 3 3 3 3 3 2 2 2 2 2 4 4 2 4 2 2 4 1 2 1 1 1 3 5 6 6 3 2 3 3 1 2 3 3 4 4 3 2 1 2 3 2 1 1 2 3 4 7 6 4 4 3 3 3 4 5 5 4 6 4 2 6 10 9 8 8 7 7 7 7 7 7 8
2 1 3 6 4 3 1 2 5 3 1 2 1 2 3 3 4 3 4 3 4 3 3 3 3 4 3 2 3 4 3 3 2 1 2 2 2 2 3 4 4 5 5 6 6 2 3 4 3 5 6 6 6 4 4 3 1 2 3 4 5 5 6 6 5 3 4 6 5 2 9 13 8 8 6 4 7 10 9 9 9 7 7 8 7 9 10 9
1 1 1 3 3 2 3 2 4 3 2 3 2 1 3 2 4 3 3 2 3 3 3 3 2 4 3 1 2 4 5 3 3 3 3 1 2 3 4 4 5 8 8 8 8 4 4 4 4 3 3 5 6 1 3 4 5 6 7 8 7 6 7 6 5 6 7 7 5 3 11 16 12 9 8 8 8 9 8 9 10 8 8 9 9 10 12 11
1 1 1 0 1 1 2 3 2 3 2 3 2 0 1 1 2 4 3 3 3 4 3 3 3 5 4 3 3 3 5 5 4 3 2 2 3 3 5 5 5 8 8 5 6 3 5 2 4 3 3 2 3 5 7 7 5 6 9 9 7 6 8 7 6 7 6 7 8 9 10 13 12 11 10 9 10 10 9 9 9 8 9 10 11 12 12 12
2 1 3 2 1 2 3 3 3 5 6 5 3 2 1 3 5 4 3 4 5 5 4 2 2 5 6 5 5 3 3 2 2 3 3 4 4 3 4 4 5 6 7 5 5 3 4 2 5 2 4 5 6 7 7 7 7 8 9 8 7 8 8 8 7 5 7 11 14 13 10 9 8 9 10 9 8 9 9 9 9 8 9 11 12 13 12 11
2 1 3 3 3 4 3 4 4 5 6 5 4 4 3 6 6 4 4 5 4 6 7 3 5 5 6 6 6 4 1 2 1 2 2 3 3 1 2 2 4 5 6 4 4 4 4 2 6 2 4 5 7 8 7 7 8 9 10 10 9 11 10 10 10 11 13 14 14 15 12 6 4 6 9 8 8 8 9 9 9 8 9 11 12 12 12 11
4 3 2 2 3 4 4 3 3 4 4 3 2 3 4 5 5 3 3 4 4 5 7 5 7 7 6 8 8 4 2 1 1 1 1 3 2 1 2 1 1 3 5 3 3 4 3 1 4 4 4 3 6 8 7 7 9 10 10 10 7 7 8 8 10 12 15 16 15 13 10 5 5 8 10 10 11 11 11 10 9 8 9 12 12 12 11 11
7 4 3 2 1 4 4 3 3 4 1 2 1 4 4 5 6 5 3 5 7 8 6 6 7 6 5 9 7 3 4 3 3 4 2 3 3 1 2 3 4 4 2 2 2 2 2 2 2 3 3 3 6 7 5 6 7 5 5 5 4 3 7 7 8 12 17 19 14 10 8 7 9 12 12 12 13 12 10 9 9 9 9 11 12 11 11 10
Wind_Direction
341 340 338 336 336 337 336 336 334 333 332 330 330 330 328 328 327 326 324 325 330 331 329 327 326 331 331 336 334 327 324 316 316 305 253 257 244 210 174 168 172 160 159 179 186 177 183 198 217 214 204 213 201 224 224 198 172 119 117 254 262 224 241 224 151 161 128 127 140 141 172 145 133 191 210 291 4 126 132 125 125 114 114 127 132 139 144 148
340 338 336 335 335 335 335 334 333 332 330 329 330 330 328 326 325 325 325 330 333 328 326 324 327 333 335 343 341 332 326 319 313 287 256 255 230 192 179 164 174 175 167 182 191 184 178 190 204 195 187 215 205 226 231 179 152 148 137 190 258 182 166 208 143 174 143 130 136 141 174 163 135 182 201 139 116 127 129 129 127 119 121 128 136 143 147 149
339 338 336 336 335 335 335 332 331 330 328 329 329 328 327 326 325 324 329 333 330 325 324 323 325 333 345 351 345 337 325 327 307 272 265 241 215 195 188 177 176 184 183 185 187 188 190 191 193 182 181 223 220 232 243 179 157 167 123 182 251 159 134 151 137 162 137 134 139 142 148 131 190 205 192 136 126 133 139 141 136 130 136 141 143 146 149 150
340 339 338 337 337 336 334 330 329 327 326 325 326 327 326 325 325 328 332 332 326 324 323 323 326 333 1 5 349 341 325 342 294 262 357 196 203 189 187 184 174 185 193 190 187 195 207 217 210 194 192 227 235 225 235 201 172 157 130 207 251 138 118 124 126 135 133 134 137 139 135 163 221 198 143 135 127 137 151 149 143 141 145 146 146 148 150 149
341 339 338 336 336 335 332 330 327 325 323 322 323 324 324 324 326 331 332 328 325 324 324 325 326 334 19 30 3 341 342 57 259 264 101 141 187 183 181 176 171 181 193 193 193 202 229 264 267 240 220 228 234 212 229 204 155 117 179 258 259 148 130 136 143 140 133 124 126 141 146 171 205 81 127 136 131 154 172 149 143 142 146 146 147 148 148 147
339 337 336 333 332 330 329 328 326 324 322 321 321 320 321 324 327 331 329 326 325 325 328 327 326 343 47 69 51 352 33 161 265 268 282 140 174 181 176 169 171 180 191 195 197 202 227 251 261 247 231 225 219 217 229 187 149 134 231 274 230 159 144 151 156 142 135 128 133 153 156 148 111 112 172 116 131 220 173 142 140 140 143 144 146 146 146 150
339 337 335 332 329 327 326 325 324 323 322 320 318 317 319 323 327 328 326 325 326 326 327 326 329 6 76 104 96 32 64 262 268 250 263 202 175 179 173 168 170 182 195 194 192 195 200 204 222 236 230 230 219 229 222 165 153 141 173 237 130 118 146 156 150 138 135 132 137 142 137 135 127 134 140 112 209 248 147 139 138 139 143 145 146 147 151 154
340 338 335 333 331 329 326 323 322 320 321 320 316 316 318 322 326 325 325 326 326 326 322 322 330 82 97 124 132 44 302 254 252 213 213 186 171 172 171 170 176 187 195 195 192 188 186 204 226 233 226 226 232 241 175 135 138 114 148 193 104 69 110 149 141 136 131 126 131 121 114 115 113 104 91 84 274 152 137 138 138 140 144 148 148 151 155 158
340 338 335 334 333 332 329 325 322 319 319 320 318 316 317 321 326 325 326 327 326 322 314 316 325 141 124 137 125 52 258 238 219 190 192 187 176 172 172 174 184 190 193 201 199 188 189 207 218 223 226 232 255 261 153 147 260 156 139 126 94 55 34 30 130 139 138 141 138 116 100 95 99 87 58 314 293 132 135 139 140 143 146 150 151 155 159 164
340 338 336 334 334 333 332 329 325 322 319 320 323 320 318 322 324 325 326 327 327 317 310 310 188 145 146 187 112 96 255 225 189 190 195 197 180 173 178 181 184 188 192 202 201 198 206 214 224 260 277 266 267 247 188 191 170 124 104 86 79 66 47 345 325 130 141 155 148 123 110 104 98 99 108 277 241 132 136 141 142 143 146 150 150 157 163 167
340 338 337 336 335 334 333 332 329 325 322 325 330 323 319 321 322 326 325 326 324 313 309 292 161 148 156 135 136 199 221 206 198 186 192 200 185 180 185 187 185 187 191 196 206 211 219 238 261 306 295 301 310 277 238 161 134 125 104 77 65 74 70 329 260 219 250 166 150 123 113 101 35 113 139 189 164 132 140 142 144 146 147 151 150 157 165 166
340 338 338 337 336 336 335 335 332 328 327 330 330 321 319 321 323 324 324 326 321 317 319 202 152 147 132 56 226 219 184 180 203 180 181 191 192 193 191 191 191 190 188 187 211 216 221 238 244 244 252 299 330 309 4 71 110 114 104 87 67 68 56 323 201 242 319 326 114 101 107 103 67 116 128 155 142 138 145 145 146 149 150 150 151 159 163 164
341 340 339 338 337 337 335 335 334 331 330 331 325 319 321 322 323 325 326 327 317 332 13 158 149 146 121 198 241 229 178 149 170 184 175 154 180 192 189 193 197 194 191 193 214 220 227 240 238 228 245 273 310 252 3 94 101 85 90 104 92 59 33 249 258 79 76 303 311 51 109 171 269 118 98 121 147 154 148 148 151 151 153 151 154 164 166 168
342 342 341 339 338 335 335 336 334 331 331 330 322 319 323 323 322 325 327 325 343 41 118 143 138 132 119 255 264 272 248 233 227 211 189 154 152 171 183 194 199 196 195 209 233 241 251 263 256 235 239 222 212 300 16 110 108 96 95 89 102 105 202 180 235 138 128 220 268 45 115 197 236 140 65 76 149 161 152 151 154 153 156 156 161 169 172 173
343 343 341 340 337 334 335 336 332 329 330 330 321 321 328 325 323 330 338 2 61 93 130 142 143 130 21 276 275 301 294 246 222 211 190 162 158 170 189 197 201 199 201 218 240 255 270 279 265 227 246 240 227 349 54 108 105 127 122 76 113 148 209 224 214 178 155 199 222 124 124 185 205 153 87 45 116 157 156 156 158 159 160 162 170 175 178 178
343 342 341 339 335 334 335 334 332 326 326 327 320 327 335 322 334 358 16 70 96 122 132 138 163 166 22 287 288 302 266 192 203 202 184 165 168 174 187 193 198 203 212 227 244 260 269 276 258 195 229 9 101 44 63 98 137 223 148 140 162 161 185 235 182 201 199 168 202 247 159 160 181 165 111 46 51 151 165 164 160 164 163 166 173 176 179 177
343 341 339 336 334 335 335 332 331 325 324 324 320 331 341 312 354 53 78 97 109 147 154 124 161 175 267 283 300 296 216 182 188 189 182 174 176 173 171 179 191 204 221 238 250 261 262 259 226 205 323 81 146 105 71 114 171 206 174 143 170 166 166 171 149 196 203 161 183 220 186 157 163 168 145 177 141 144 171 170 163 165 164 170 171 172 183 173
342 340 338 335 333 336 334 330 330 327 326 327 328 336 318 279 250 119 124 125 111 134 241 308 338 128 271 274 290 284 225 187 179 184 185 180 184 183 174 175 184 195 218 248 257 258 260 319 77 103 324 293 179 128 141 187 166 176 168 131 160 167 176 185 165 174 177 169 180 181 180 155 154 168 159 184 129 113 162 167 161 164 163 171 166 167 182 165
342 340 337 334 334 337 335 331 331 331 332 333 333 327 291 257 209 149 137 140 121 110 264 222 177 127 296 255 265 270 238 202 191 194 191 185 190 192 184 183 179 171 180 232 269 252 137 32 66 161 266 247 220 184 184 226 309 201 164 134 154 172 197 194 157 160 165 164 177 170 167 158 160 179 175 157 114 101 112 89 147 163 163 168 163 166 174 158
344 341 337 334 335 339 337 333 333 334 340 339 335 335 297 336 37 190 167 183 208 225 242 199 186 243 293 285 288 284 236 206 206 209 200 192 184 182 186 186 165 143 156 179 243 264 138 107 190 209 217 233 231 201 195 232 262 248 165 141 162 176 189 172 130 158 158 148 176 165 149 156 162 177 182 137 115 99 95 72 100 158 165 164 158 164 167 154
345 341 337 335 336 339 338 335 334 334 337 334 334 3 201 178 98 314 259 226 232 228 242 229 203 231 262 272 284 291 281 214 208 216 208 192 165 165 191 176 152 181 199 181 204 272 137 154 219 221 216 233 244 235 232 240 244 251 198 152 166 167 136 96 112 135 141 116 162 144 129 148 164 168 171 100 133 120 106 95 78 133 158 161 160 164 161 150
347 342 338 336 335 339 339 337 336 331 329 325 322 288 254 257 278 319 302 266 264 224 230 243 226 243 255 261 267 268 261 202 203 233 214 177 153 170 191 152 150 205 227 181 179 221 173 214 231 222 221 236 250 251 252 258 251 251 207 167 167 130 87 50 95 96 25 6 107 127 128 144 178 143 62 350 133 128 116 111 90 91 94 125 156 164 157 146
348 343 339 336 334 338 340 338 337 333 332 323 282 229 265 311 330 331 327 284 297 237 219 233 228 247 255 265 264 244 218 185 182 231 204 153 152 172 162 157 160 191 214 184 174 164 189 231 229 220 215 226 245 246 243 260 261 242 185 171 172 145 133 137 120 96 27 56 118 138 129 143 211 120 103 330 345 43 81 88 79 73 61 80 142 166 160 153
347 343 340 335 333 338 339 335 336 344 343 319 275 264 283 318 325 325 335 130 294 273 230 218 213 227 238 260 259 211 183 177 168 206 191 153 147 157 162 171 159 184 217 198 184 186 226 236 218 212 208 211 237 246 236 244 255 244 192 174 173 162 156 140 134 129 87 71 140 141 106 167 192 150 160 287 5 12 18 53 58 52 46 330 49 12 159 161
347 344 340 337 334 336 337 331 334 356 342 306 288 308 317 306 297 302 334 60 305 282 248 214 204 221 236 253 261 156 146 180 183 184 176 161 154 152 175 174 151 196 216 204 194 204 243 245 211 203 211 208 230 248 240 225 240 270 216 184 171 157 140 123 131 137 100 73 206 163 94 274 178 145 165 172 118 183 343 13 253 43 357 326 18 21 10 148
345 343 340 339 333 333 338 327 319 338 328 289 310 336 334 299 285 316 64 51 324 268 211 172 172 208 235 238 199 95 113 217 203 174 169 173 176 167 181 181 167 205 206 197 201 206 237 242 211 202 212 207 219 242 243 218 210 275 235 182 158 141 136 138 142 144 135 177 208 193 144 124 156 146 160 162 144 172 51 273 251 240 248 292 323 304 15 88
343 343 341 339 335 335 334 301 317 324 308 305 330 342 345 318 317 22 64 46 329 248 177 318 347 39 221 187 131 109 144 243 198 169 170 179 183 161 178 211 190 201 199 170 206 231 224 229 215 207 211 207 212 232 236 198 176 260 237 153 141 141 149 154 148 140 153 131 145 203 198 105 144 138 138 157 176 214 232 222 236 237 238 254 265 269 233 131
341 343 339 338 338 333 317 304 315 313 312 329 331 339 341 335 346 40 82 65 332 309 172 247 322 308 280 288 91 162 207 198 153 181 181 179 181 137 174 228 215 225 246 177 219 252 227 218 212 200 205 211 215 224 220 183 180 250 190 143 144 151 155 151 139 115 120 106 127 219 208 100 124 123 129 154 179 216 222 206 212 216 222 240 237 229 231 138
339 341 336 335 336 328 320 310 301 306 336 339 338 335 333 336 358 64 88 77 61 298 236 256 345 252 268 327 294 271 278 96 152 196 177 176 186 139 177 218 216 263 267 200 215 258 246 226 207 183 195 214 225 233 217 186 206 216 142 137 136 141 143 132 124 110 100 106 192 212 194 124 187 194 147 163 192 211 213 198 201 206 209 228 227 211 217 91
337 337 332 331 330 322 321 307 290 311 340 342 338 332 335 351 34 72 33 54 113 255 226 31 290 185 161 203 248 265 275 257 180 160 143 173 190 117 177 185 158 263 285 236 229 243 251 256 224 184 197 207 216 233 219 198 207 177 138 135 127 131 126 95 101 95 92 249 216 196 194 149 138 227 184 178 194 194 195 189 188 192 198 215 224 208 186 80
333 334 327 324 318 303 301 296 293 319 328 332 336 338 354 22 66 90 46 77 76 282 245 242 231 150 146 188 229 217 192 256 176 140 162 193 121 79 288 110 138 292 328 312 272 263 270 272 256 213 201 193 204 227 224 210 195 129 126 131 129 129 80 67 39 58 122 251 223 183 189 136 119 237 208 198 215 177 183 191 186 182 184 198 210 195 153 58
330 330 321 316 307 283 264 275 299 317 317 330 343 354 47 42 44 139 224 354 341 241 204 212 215 177 173 188 222 204 142 198 199 154 171 170 131 176 196 174 173 48 334 280 276 321 297 250 248 255 212 174 167 219 236 246 43 86 110 115 121 133 74 114 115 117 191 260 209 170 163 83 343 278 188 190 216 177 165 179 185 180 178 185 191 184 154 72
329 326 318 312 303 289 280 287 300 304 311 331 349 37 83 67 336 243 250 296 251 223 198 184 194 179 158 166 228 198 130 210 213 173 183 156 127 193 216 213 190 157 205 257 296 326 283 258 258 280 264 176 133 139 206 239 1 109 139 133 129 151 161 159 173 180 204 300 114 143 128 69 272 345 19 67 103 73 75 81 145 158 162 175 170 147 124 67
330 326 320 310 302 299 296 294 286 282 302 333 15 67 64 61 248 268 284 254 235 243 220 175 177 171 152 169 222 160 136 221 203 164 179 122 80 182 225 240 208 155 112 316 293 201 175 251 253 209 240 206 136 149 165 158 138 170 165 139 135 163 160 161 182 183 157 135 25 53 95 155 209 37 4 14 65 67 58 46 51 71 81 121 132 123 115 73
335 328 322 311 304 304 305 288 258 260 292 4 52 67 71 190 257 289 283 253 267 300 279 156 146 149 169 213 254 155 149 198 195 158 163 143 124 186 213 253 225 154 124 315 276 220 164 221 248 213 198 150 133 172 146 107 36 264 169 121 141 193 153 145 180 148 127 118 25 24 63 38 84 48 5 21 72 73 79 75 66 82 96 102 97 95 100 86
341 333 323 308 303 307 309 219 205 205 154 69 55 41 153 223 233 204 249 268 314 350 10 41 69 87 171 243 321 304 182 173 194 181 165 138 99 346 293 273 299 137 148 177 235 293 176 228 277 273 195 142 152 173 131 117 161 296 48 156 211 218 142 123 129 120 115 100 61 84 111 106 110 50 356 30 79 75 82 85 69 60 111 124 111 84 82 87
347 342 321 296 296 286 206 183 177 166 101 76 71 288 244 241 222 194 245 303 330 27 65 45 2 31 79 80 349 333 33 145 231 172 174 121 49 339 329 335 13 50 115 188 190 184 160 243 295 252 175 259 170 137 101 98 122 104 86 229 248 315 102 114 104 103 92 83 71 87 122 140 157 143 318 114 107 93 74 66 52 40 89 128 124 110 105 97
343 344 313 285 271 231 212 197 174 149 79 61 13 267 244 246 251 239 267 338 350 24 71 85 316 40 63 69 346 343 48 36 343 20 97 68 62 326 343 347 349 8 348 315 142 179 122 110 296 270 153 293 12 98 104 356 53 123 166 199 81 76 48 2 126 143 103 104 142 18 51 141 222 173 180 170 132 115 96 87 79 58 73 108 114 111 111 101
336 355 318 288 241 206 209 197 170 109 59 48 287 273 259 256 280 313 340 12 18 41 67 138 141 55 63 85 39 335 45 46 3 14 45 33 31 281 357 357 331 344 334 359 73 282 95 108 287 300 144 135 18 70 162 310 359 75 71 20 67 139 159 182 188 153 123 128 155 114 2 288 252 195 186 184 146 126 118 111 104 86 73 81 99 106 105 94
338 59 305 311 235 189 188 179 141 70 63 224 230 248 284 289 309 332 3 37 52 52 52 234 80 70 101 77 69 330 44 53 24 25 40 14 336 294 4 7 341 334 325 3 60 8 23 90 214 298 353 101 48 301 167 155 63 57 50 18 318 323 156 186 292 109 119 136 153 135 111 258 256 49 110 144 125 111 106 97 91 84 73 63 66 85 94 90
23 47 287 311 184 174 163 147 100 80 177 259 267 258 298 321 331 327 356 42 69 74 46 43 71 81 113 73 60 318 45 63 37 35 36 10 36 6 351 1 346 332 336 13 32 20 15 85 143 299 355 98 197 227 166 147 149 134 136 192 205 204 141 91 315 325 106 122 146 146 147 159 26 51 66 63 114 104 102 100 87 72 67 62 55 67 78 83
79 38 267 291 181 171 137 81 253 141 164 254 256 249 296 320 318 317 337 23 53 66 32 47 78 71 65 86 110 91 64 63 28 44 127 29 47 359 323 354 360 353 39 38 317 303 222 99 65 286 248 189 228 243 109 110 117 120 129 165 171 159 130 134 187 227 79 85 93 99 109 105 56 32 330 241 127 113 109 109 100 82 70 67 60 66 69 70
88 279 275 301 244 184 127 19 275 318 241 253 272 269 300 324 332 0 3 10 30 32 17 32 62 61 47 43 113 103 80 62 322 335 187 63 28 328 324 7 13 13 46 34 308 310 339 68 33 312 297 336 347 8 22 30 58 73 48 5 340 163 126 133 163 146 106 105 110 91 88 113 102 101 266 118 114 115 112 106 102 94 83 72 60 62 66 66
298 274 273 313 317 186 176 228 241 281 275 290 324 308 305 309 334 25 11 352 26 57 39 16 21 76 67 14 22 81 97 98 275 289 352 91 344 328 347 19 26 19 21 325 273 321 353 51 66 38 17 9 19 29 1 346 31 73 322 342 339 109 113 104 82 81 80 85 119 116 115 125 144 146 135 91 122 119 110 105 102 100 97 88 73 66 66 68
316 287 263 310 343 149 174 195 170 195 260 340 324 291 299 307 320 44 15 334 35 100 111 43 50 105 101 356 359 26 111 122 157 282 1 46 348 337 349 8 21 9 312 268 260 278 37 53 89 106 106 118 124 77 303 289 316 331 334 30 30 71 103 116 103 75 84 100 83 100 122 116 133 150 147 165 138 123 118 116 106 102 104 101 95 86 75 70
7 352 289 313 351 89 219 226 139 152 210 99 347 319 45 352 315 15 27 4 28 52 76 57 58 87 76 12 9 9 19 95 85 83 88 32 330 290 320 350 356 341 351 358 350 33 87 41 68 128 142 159 173 211 239 210 102 32 31 38 40 61 87 107 106 98 135 121 73 75 138 133 146 162 149 144 135 127 130 126 114 112 111 104 99 93 86 79
69 300 352 340 332 356 328 323 113 148 201 120 103 340 53 2 311 358 15 0 34 40 52 47 61 93 77 53 72 13 356 17 37 63 93 43 283 301 335 356 0 356 6 13 3 41 95 22 12 105 167 188 170 151 6 61 82 77 64 40 31 68 85 76 96 139 142 112 89 171 149 138 152 165 147 142 136 127 132 132 127 133 127 114 103 93 89 87
75 269 306 52 269 295 327 326 90 111 87 84 87 99 150 159 36 35 350 316 9 45 57 38 52 92 100 110 111 38 7 16 16 13 37 13 345 350 354 355 8 13 19 18 5 51 101 23 342 27 23 357 76 51 42 60 65 60 61 51 50 89 99 87 113 150 143 121 142 168 155 141 150 155 147 151 147 139 143 140 135 140 133 119 108 96 88 83
16 333 302 339 329 244 269 317 25 64 57 50 38 13 81 91 61 42 359 352 359 15 41 76 141 115 101 99 98 63 31 47 14 344 4 19 7 19 23 348 335 4 27 32 12 49 102 355 320 27 48 11 21 33 41 60 56 40 40 42 58 80 90 94 106 109 97 112 132 137 133 133 141 146 150 153 147 140 139 134 130 129 121 112 106 100 93 83
7 322 314 341 343 304 308 356 34 57 40 33 32 7 28 66 52 21 22 37 21 356 6 45 142 117 90 88 93 89 98 168 123 359 11 39 18 30 74 344 304 352 23 25 354 15 79 320 304 30 65 0 5 18 26 56 65 47 28 25 52 75 79 89 101 97 95 108 121 122 121 120 114 126 133 130 122 121 124 127 126 121 113 109 103 100 96 88
328 283 323 1 319 325 344 355 47 83 43 15 44 26 32 54 41 26 27 32 61 46 10 31 81 77 63 64 67 59 346 325 130 288 283 102 99 174 145 103 91 37 17 12 0 7 45 352 318 41 63 335 341 3 11 55 64 42 20 9 28 82 100 110 122 124 122 124 124 123 126 136 134 124 116 112 114 114 117 119 116 114 115 112 107 103 100 92
352 328 354 67 253 333 355 340 20 83 91 282 78 66 63 62 42 52 53 1 27 53 40 44 72 76 62 52 42 350 305 301 282 278 254 122 96 116 121 80 85 94 46 23 34 349 29 52 0 48 71 308 323 353 13 55 52 21 342 328 334 81 99 109 127 133 135 137 139 144 149 150 142 128 117 116 118 117 120 123 120 120 117 110 109 108 103 97
Height
802 801 800 798 797 796 795 794 793 791 790 789 788 787 786 786 785 785 784 783 783 782 781 780 779 779 778 777 776 775 774 773 772 772 770 762 759 762 763 765 766 767 768 770 771 773 774 775 775 775 779 780 782 780 777 778 779 785 796 807 810 808 807 802 801 802 801 806 808 806 804 805 806 803 797 796 799 799 802 804 803 803 804 806 808 810 813 817
802 800 799 797 796 795 794 793 792 791 790 788 787 787 785 785 784 783 783 782 782 780 780 779 778 778 777 777 776 775 773 771 771 769 762 756 758 761 762 763 765 766 767 768 769 770 772 774 773 775 779 781 781 778 777 776 777 787 798 806 806 802 799 794 794 795 795 802 805 804 804 802 802 802 798 802 806 803 807 810 806 809 810 810 810 812 815 817
800 799 798 796 795 794 793 792 791 790 788 788 786 785 784 784 783 782 782 781 780 779 778 778 777 776 776 776 775 775 773 771 769 763 755 753 757 759 760 762 763 765 765 766 767 768 770 770 771 774 780 784 780 777 779 776 777 785 792 804 801 793 794 790 790 791 790 795 800 804 804 803 802 800 798 803 807 806 810 810 808 814 814 813 812 812 815 817
800 798 797 795 794 793 792 791 790 789 788 787 785 784 784 782 782 781 781 780 779 778 777 776 776 776 776 776 775 774 772 772 766 756 753 753 754 756 759 761 762 764 765 765 767 768 768 769 771 774 780 786 780 777 781 776 778 784 789 798 793 787 793 791 788 789 787 790 796 800 803 806 801 796 797 800 808 811 808 804 804 810 811 811 812 812 815 817
799 798 796 795 793 792 791 790 789 788 787 785 784 783 782 781 781 780 780 779 778 777 776 776 775 775 775 775 775 774 773 776 765 752 754 753 753 755 757 760 762 763 765 766 767 768 770 771 773 776 781 785 781 780 781 772 773 784 788 789 785 786 793 790 786 787 786 789 795 799 802 802 796 797 799 798 807 810 803 798 799 802 805 808 810 812 815 817
799 797 795 794 792 791 790 789 787 786 785 784 783 782 781 781 779 779 779 778 777 776 775 775 774 774 775 774 775 774 774 774 760 752 754 753 754 755 757 760 761 763 764 766 766 767 770 771 776 781 781 781 781 781 778 769 769 784 789 783 781 783 789 788 785 786 786 790 797 798 796 794 797 804 801 797 803 800 793 794 796 799 802 806 809 812 815 817
797 796 794 793 791 790 788 787 786 785 784 783 782 781 780 779 778 778 777 777 776 775 774 774 774 774 774 774 774 774 775 768 754 752 754 753 755 755 757 759 760 763 764 764 765 767 770 773 779 780 780 781 780 778 773 769 769 781 788 784 782 782 784 785 784 786 786 790 793 791 792 795 800 803 799 798 798 793 790 791 795 799 803 807 810 813 816 818
796 795 793 792 790 789 787 786 785 784 783 781 780 779 779 778 778 777 776 776 774 774 774 773 773 773 773 774 773 775 775 762 751 752 752 753 755 755 758 759 760 762 762 763 763 765 769 774 776 775 781 780 774 775 771 773 777 780 786 784 783 784 785 784 784 787 787 788 789 790 796 798 798 799 800 801 797 791 790 792 795 800 804 808 811 814 816 818
795 794 792 791 789 788 786 785 783 782 781 780 779 778 777 777 776 776 775 774 773 773 772 772 773 772 773 773 773 774 767 753 749 752 751 753 754 755 757 757 759 761 761 763 762 765 769 771 771 770 777 774 770 773 770 778 785 780 781 783 786 791 791 789 789 788 789 788 787 793 800 799 795 798 804 803 796 791 790 794 797 800 805 809 811 814 815 818
794 792 791 790 788 786 785 783 782 781 779 779 778 777 776 776 775 774 774 773 772 771 771 771 772 772 774 773 773 772 757 748 751 751 750 752 753 754 756 756 758 759 760 761 761 763 763 764 764 763 769 770 768 771 770 776 779 774 779 784 788 794 794 794 796 793 792 788 787 794 801 799 793 798 810 805 794 792 794 798 799 801 807 808 811 813 814 817
793 791 790 788 787 785 783 782 781 779 778 777 777 776 775 774 774 773 772 772 771 770 770 770 770 772 773 773 775 767 752 749 751 749 750 751 751 753 753 754 756 757 759 760 760 759 759 759 759 763 770 769 768 770 768 766 768 772 780 789 793 794 796 797 798 799 797 793 788 789 797 799 795 801 808 801 794 794 797 802 802 804 807 808 811 812 813 816
792 790 789 787 785 784 782 781 779 778 777 776 776 774 774 773 773 772 771 770 770 769 769 770 771 772 772 774 771 759 749 750 750 750 751 749 751 752 752 754 754 755 757 757 758 756 758 758 759 769 771 766 771 775 770 762 766 774 779 795 801 797 801 801 798 800 801 798 790 789 802 808 804 805 803 796 794 796 799 804 805 806 808 809 810 812 814 815
791 790 788 786 784 782 781 779 778 777 776 775 774 773 773 772 771 771 770 770 769 768 769 769 770 771 773 771 759 750 749 751 751 751 751 750 751 751 753 754 754 755 756 756 757 756 759 758 760 767 763 765 774 770 765 763 770 781 784 794 805 807 808 803 799 800 801 801 793 795 818 824 810 804 801 795 795 799 804 806 806 808 809 810 811 812 814 814
791 789 787 785 783 781 779 778 777 775 774 774 772 772 772 771 771 770 769 769 769 769 769 769 771 772 773 764 748 747 750 749 751 751 750 750 750 752 754 754 755 756 756 756 756 756 758 757 758 762 758 762 766 760 765 773 777 788 792 797 807 815 813 803 800 802 802 802 795 799 822 827 811 803 799 795 796 800 806 807 807 809 809 811 811 813 814 813
790 788 786 784 782 780 778 777 775 773 773 772 771 771 770 770 770 769 769 769 769 769 768 770 771 771 773 762 746 745 747 748 749 748 749 749 749 752 753 754 755 755 756 756 756 755 756 755 758 763 761 757 760 768 778 784 787 790 799 811 812 813 814 805 800 801 802 802 798 804 821 823 810 803 799 796 797 800 805 807 807 809 810 812 812 813 814 813
789 787 785 783 781 779 777 775 774 772 771 770 770 770 769 770 769 769 769 768 769 769 769 771 770 771 773 761 746 743 745 746 746 746 748 748 749 750 751 754 755 755 757 756 755 755 754 756 757 759 761 762 768 779 785 792 799 793 797 815 815 812 818 812 802 798 798 801 802 807 819 820 809 803 799 797 799 802 805 807 806 809 810 811 812 813 813 813
788 786 784 782 780 778 776 774 772 771 769 769 768 768 769 769 768 768 769 769 770 769 769 770 770 772 767 752 746 746 743 743 744 745 747 747 748 749 750 753 754 755 756 755 756 756 755 757 760 761 763 769 773 779 792 802 807 799 795 807 809 808 816 815 808 800 796 802 807 808 814 815 807 803 802 799 800 803 805 806 806 807 809 810 811 812 812 813
787 785 783 781 779 777 775 773 771 769 768 768 767 767 768 768 768 768 768 769 769 770 771 770 771 775 764 750 749 747 742 742 743 744 746 746 748 749 750 752 753 755 759 761 760 758 759 760 763 771 772 774 775 781 796 800 797 797 796 803 809 808 811 811 807 799 796 804 808 810 813 810 806 804 803 801 799 803 806 804 804 805 808 809 810 811 812 812
786 784 782 780 778 776 774 772 771 769 767 767 766 766 766 766 767 768 768 769 770 769 769 767 768 768 761 751 747 744 741 742 743 744 745 745 748 749 749 751 753 758 766 771 767 762 763 767 772 780 782 779 777 780 788 787 784 787 788 797 807 810 809 803 799 794 794 805 809 810 813 810 809 809 806 803 800 804 807 804 804 805 806 808 809 811 811 812
785 783 781 779 777 775 773 772 770 768 767 766 765 765 765 767 769 770 769 768 765 760 758 759 759 757 753 748 744 743 743 742 743 743 743 744 746 750 751 751 756 762 769 774 773 764 764 778 783 782 782 776 773 774 777 777 777 779 784 792 799 804 806 799 798 795 791 805 813 807 810 811 810 811 808 804 803 805 808 807 806 806 806 807 808 810 810 811
784 782 780 777 776 774 773 771 769 768 767 766 765 765 765 767 770 770 766 763 757 752 753 752 752 753 749 745 742 743 745 745 744 741 742 743 743 753 757 755 764 771 771 770 771 765 768 784 784 776 774 769 768 771 772 773 775 778 783 791 797 800 803 798 798 800 794 805 815 809 811 814 810 810 809 806 806 808 807 808 809 808 807 807 807 808 810 810
783 781 778 776 774 773 772 770 769 767 766 766 765 765 763 761 763 762 761 762 754 748 750 748 750 751 744 742 741 742 747 750 749 743 740 742 745 756 760 760 770 775 770 769 774 776 780 785 777 769 768 766 767 769 771 773 775 779 781 788 799 799 802 805 801 801 800 807 817 815 817 819 813 812 814 812 810 809 807 806 808 809 809 808 807 807 808 810
783 780 778 775 773 772 771 769 768 766 766 765 764 763 760 757 757 757 758 763 757 747 746 747 750 749 744 742 738 740 748 751 752 748 739 743 750 754 759 764 771 772 771 774 779 786 789 781 768 764 765 767 770 770 772 775 775 779 781 788 797 793 799 811 810 806 804 808 816 817 820 822 819 818 819 817 814 811 808 806 807 809 811 810 808 808 808 810
781 779 777 774 772 772 770 768 767 766 765 764 762 760 757 756 756 757 757 762 762 749 741 742 743 744 744 738 732 738 747 745 748 747 739 744 752 753 758 763 769 774 773 773 776 783 782 769 759 762 766 767 771 771 772 778 778 776 776 782 789 788 790 802 808 807 807 812 811 813 824 827 820 823 824 818 816 815 811 808 808 810 810 809 808 808 808 808
780 779 776 773 772 771 770 768 766 766 765 763 761 757 756 757 755 756 759 767 769 753 740 739 739 739 736 733 731 733 741 743 742 742 737 741 750 754 758 759 766 775 774 771 776 780 774 760 756 763 767 767 772 773 770 774 780 777 770 769 775 783 790 797 803 807 819 827 812 808 830 835 821 823 827 821 820 820 816 811 810 811 811 809 809 809 809 807
779 778 775 773 772 770 770 767 765 766 765 762 759 756 756 756 755 755 760 776 778 757 745 744 742 740 734 733 731 732 747 749 736 734 736 739 742 748 759 760 761 769 768 767 772 773 765 756 756 763 766 768 772 773 766 766 779 781 764 756 764 777 790 798 799 806 822 826 808 803 823 835 828 826 827 824 824 822 819 816 812 811 812 811 810 810 810 809
778 776 774 773 770 770 769 766 766 766 764 761 758 757 757 755 755 753 764 789 784 754 748 749 742 740 736 733 730 739 759 752 735 735 734 738 739 741 758 764 761 764 758 763 776 769 757 756 759 761 763 769 773 772 762 759 776 777 753 750 766 777 787 793 793 802 809 807 807 806 811 827 835 830 826 824 826 825 822 820 816 812 813 812 810 811 810 808
777 775 773 771 770 770 768 767 767 764 762 760 757 757 756 755 755 755 774 801 781 748 747 747 739 736 734 733 732 740 749 742 746 747 731 733 740 742 759 763 761 763 754 764 781 766 750 756 759 759 764 769 767 762 753 755 768 763 746 749 762 772 780 783 788 798 798 805 825 819 806 826 840 830 824 824 827 829 823 819 817 813 813 812 810 811 809 807
775 773 772 770 769 768 767 767 765 762 760 758 757 757 755 754 755 761 785 797 770 746 747 745 741 739 736 738 739 740 740 740 749 746 731 736 739 742 756 756 755 762 756 761 772 761 748 747 747 752 762 763 756 749 745 752 758 750 744 751 759 770 778 780 788 796 798 813 831 820 807 827 843 833 828 829 828 826 819 814 814 813 812 811 809 810 809 807
773 772 770 769 768 767 767 765 762 761 759 757 758 756 754 756 762 780 799 788 763 751 747 746 745 743 743 747 747 744 744 744 743 739 739 742 740 741 747 746 750 759 759 758 760 756 746 737 737 744 749 748 744 741 739 743 745 742 749 758 765 774 779 783 788 792 811 825 820 810 804 817 835 832 824 824 819 813 812 812 812 811 811 810 808 809 809 808
770 770 768 767 767 766 766 764 760 760 759 758 758 754 757 763 772 795 799 771 759 757 749 749 748 744 747 752 752 748 748 747 743 745 750 747 748 751 751 753 757 762 767 764 758 753 747 744 742 737 734 734 739 741 737 734 735 742 753 763 776 787 789 797 798 800 825 830 807 799 799 806 826 827 816 812 807 803 807 810 810 810 810 809 808 808 809 809
768 767 766 765 764 764 764 762 759 760 759 759 758 756 765 778 786 795 783 761 763 762 751 750 749 746 748 750 752 750 750 751 746 748 752 752 757 758 758 763 764 772 779 771 763 759 753 749 742 735 729 729 740 749 744 739 740 747 756 765 787 804 808 819 823 818 825 816 793 791 798 811 824 819 809 807 803 802 803 804 806 806 807 807 807 808 808 809
766 764 763 763 762 761 760 759 759 760 759 758 759 760 773 790 792 784 772 765 764 754 744 746 745 745 749 752 754 750 751 753 748 749 750 751 758 759 757 756 755 769 778 771 769 770 764 752 739 740 737 728 736 752 756 755 752 754 760 769 788 808 821 833 829 820 820 811 794 788 799 821 829 815 809 808 804 803 802 802 804 804 806 808 807 808 809 809
763 762 762 760 759 758 757 758 758 759 759 759 762 768 780 793 786 771 768 765 755 745 742 743 744 746 749 753 753 749 753 754 747 750 752 753 761 764 760 755 752 760 767 770 772 771 776 769 748 743 742 732 734 742 748 753 754 754 753 759 775 787 804 819 816 813 820 816 804 799 811 830 832 821 814 809 805 805 805 804 804 804 807 808 808 807 809 811
762 760 760 758 758 757 755 756 757 758 760 761 766 776 787 791 781 769 765 757 749 746 743 740 745 752 754 752 750 746 750 754 749 751 755 757 763 765 761 758 754 755 764 775 772 764 772 768 743 733 732 730 735 734 732 744 757 754 747 757 770 769 775 790 793 795 807 818 820 821 828 830 824 820 814 809 807 807 807 807 805 806 807 808 810 810 809 812
760 759 758 757 756 755 755 756 756 758 760 763 774 784 784 779 771 765 759 749 748 750 748 748 751 758 761 757 754 749 746 749 751 755 758 758 762 763 760 756 751 750 759 769 769 766 772 763 740 733 731 727 732 731 728 742 757 757 756 764 764 755 760 778 789 787 796 824 836 832 835 831 823 823 818 812 811 810 809 810 808 809 809 809 812 812 811 812
760 758 757 755 754 755 755 756 756 759 760 767 781 785 775 766 759 756 751 745 746 746 751 762 762 762 767 764 760 756 751 751 752 756 760 761 765 765 760 756 751 749 752 757 761 762 768 765 744 737 741 732 723 727 730 733 743 756 766 762 753 753 757 769 793 803 812 838 844 833 837 838 834 834 826 817 817 816 814 814 812 812 810 811 812 813 812 811
760 759 757 753 752 753 754 756 757 759 762 772 783 780 768 761 752 747 746 743 745 746 753 767 765 762 768 772 769 761 757 762 761 760 762 766 769 767 762 760 753 749 747 748 755 755 758 767 753 737 743 737 723 731 743 738 735 747 755 749 754 774 778 774 789 808 824 846 851 843 842 839 836 836 830 824 822 821 820 817 816 816 813 812 812 812 812 811
760 761 759 752 750 751 753 756 757 760 768 779 785 777 765 758 749 744 743 742 746 750 756 763 762 762 767 771 774 766 760 766 769 767 769 774 774 765 759 760 755 750 745 744 753 752 751 766 765 743 737 738 734 743 757 755 744 741 747 749 756 770 777 777 780 793 816 840 848 850 852 843 833 828 825 824 821 819 822 820 818 818 816 813 812 810 811 811
761 765 761 751 750 752 752 754 758 764 774 779 779 772 762 756 750 743 740 741 747 752 756 759 759 764 767 767 771 768 761 767 771 771 774 774 774 767 758 758 757 752 746 743 749 751 749 762 769 753 739 744 752 752 755 759 754 752 757 763 764 763 766 772 776 781 802 828 839 848 855 845 827 820 822 822 819 818 822 822 821 820 818 816 814 812 811 812
762 768 763 751 751 752 752 759 763 767 774 773 770 767 760 755 751 747 742 741 746 749 752 756 758 762 765 767 770 767 764 769 772 773 774 771 773 773 762 756 757 754 749 749 752 754 756 762 769 763 753 755 756 747 743 747 750 754 760 762 765 766 770 782 791 786 790 809 822 833 847 844 828 821 823 822 819 819 820 821 822 822 820 819 817 815 814 814
766 770 761 751 754 753 755 765 767 767 771 769 765 762 757 754 753 751 747 744 747 748 748 753 757 760 763 765 767 765 766 773 774 773 775 771 770 771 762 754 754 753 754 759 758 753 753 761 769 767 759 755 749 740 738 741 741 746 753 756 759 763 768 783 796 794 795 804 809 818 838 842 828 822 824 821 818 818 819 819 820 822 822 820 819 816 815 815
768 767 755 749 753 753 759 770 769 767 769 764 759 757 755 755 754 752 750 749 751 752 752 755 756 759 761 761 762 763 767 775 775 772 773 772 767 764 759 753 753 754 756 761 760 751 752 764 773 770 761 752 745 739 738 739 742 750 754 753 757 760 762 770 778 784 800 811 811 822 842 842 829 823 821 819 817 817 819 819 820 822 823 822 821 819 816 816
769 766 755 749 750 752 763 772 771 769 768 763 761 759 756 755 754 754 755 754 754 755 758 759 758 759 759 757 759 763 768 776 777 771 770 772 767 760 756 753 754 756 758 761 759 754 759 771 776 777 779 775 768 763 759 752 751 758 759 755 757 759 760 767 773 780 800 812 810 823 843 841 828 823 820 819 818 819 821 821 820 822 823 824 825 823 820 818
769 767 760 751 747 752 761 764 765 768 767 765 767 764 760 758 753 753 756 755 753 754 758 759 757 758 759 760 763 764 765 772 776 772 770 771 767 760 757 755 755 757 757 757 754 753 762 772 774 782 795 801 798 792 783 772 763 761 760 756 757 759 761 769 777 788 805 812 810 821 837 838 829 824 822 821 820 821 823 822 822 823 824 825 825 825 824 821
771 771 767 759 751 752 757 757 759 764 764 766 769 765 764 764 757 751 754 755 754 753 756 758 758 760 764 766 771 771 768 768 771 772 772 772 769 763 759 757 756 756 755 753 751 752 763 772 775 780 787 791 791 784 773 769 769 768 766 762 760 762 762 767 778 793 805 812 819 822 824 831 833 827 823 821 820 822 823 823 824 825 825 825 825 825 824 823
774 774 772 770 765 760 760 758 759 763 762 764 768 766 765 768 764 757 755 756 756 754 757 760 759 764 770 771 775 778 775 770 770 771 773 773 770 765 760 759 759 757 755 754 753 756 768 778 777 777 777 774 773 770 764 764 769 770 769 768 766 762 761 766 779 791 796 809 829 826 816 824 831 824 822 822 821 823 824 823 825 826 825 825 825 825 825 825
774 773 769 770 773 770 767 762 760 761 761 762 765 766 767 769 768 767 763 758 756 756 761 766 764 766 770 770 775 781 780 777 776 776 775 774 772 769 766 764 762 760 758 760 758 760 774 782 777 774 776 771 766 764 763 765 769 769 770 771 769 765 764 771 783 788 786 799 820 822 816 821 823 820 821 821 820 823 824 824 824 825 825 825 825 827 827 827
774 774 769 767 770 770 767 761 759 761 763 764 765 767 769 770 771 771 767 764 764 761 764 771 770 766 767 767 772 781 784 784 785 781 777 776 775 776 776 774 769 762 762 766 765 765 776 783 779 776 776 772 768 766 765 766 770 773 775 774 771 770 771 776 786 788 787 796 808 813 818 822 818 816 818 817 817 820 821 823 824 826 826 826 826 828 829 830
777 779 775 772 771 767 763 761 761 764 766 767 770 769 769 771 773 771 768 770 775 771 767 770 770 767 769 769 772 781 783 781 784 782 777 778 779 778 780 780 775 769 768 771 771 769 777 785 781 776 777 777 772 768 768 770 773 776 779 778 776 779 781 784 790 792 796 805 809 812 822 825 817 813 815 815 817 819 822 825 827 827 828 828 829 830 831 832
779 778 777 778 777 769 766 765 764 768 770 771 773 772 772 774 774 771 770 770 774 776 773 772 772 771 773 774 775 781 779 776 779 778 774 776 777 775 777 775 774 775 775 776 776 773 777 785 781 778 785 786 778 775 775 772 772 778 782 783 783 785 787 788 789 788 794 807 815 819 827 827 818 814 816 818 819 822 825 827 827 829 829 829 831 832 833 834
778 776 775 779 779 772 770 769 767 771 774 772 771 771 773 775 771 772 776 773 770 773 773 772 773 775 778 780 779 778 775 773 773 771 769 770 770 770 771 770 771 775 777 779 781 779 779 785 786 787 793 792 785 782 775 774 786 795 790 786 786 785 785 788 788 786 787 796 808 817 820 819 815 813 818 822 822 824 827 827 828 830 829 829 831 833 834 835